QPF
0.00 0.00 0.00 0.00 0.00 0.00 0.00 0.00 0.01 0.01 0.02 0.03 0.05 0.08 0.10 0.10 0.14 0.21 0.24 0.21 0.17 0.13 0.08 0.05 0.06 0.04 0.05 0.05 0.04 0.03 0.03 0.04 0.07 0.04 0.00 0.00 0.00 0.00 0.00 0.00 0.00 0.00 0.00
0.00 0.00 0.00 0.00 0.00 0.00 0.00 0.00 0.00 0.01 0.01 0.02 0.04 0.05 0.07 0.08 0.09 0.12 0.16 0.18 0.18 0.16 0.12 0.08 0.07 0.05 0.05 0.05 0.04 0.03 0.03 0.02 0.04 0.05 0.01 0.00 0.00 0.00 0.00 0.00 0.00 0.00 0.00
0.00 0.00 0.00 0.00 0.00 0.00 0.00 0.00 0.00 0.00 0.01 0.01 0.03 0.04 0.05 0.06 0.09 0.11 0.12 0.14 0.13 0.12 0.10 0.08 0.07 0.06 0.04 0.04 0.03 0.03 0.03 0.02 0.02 0.03 0.01 0.00 0.00 0.00 0.00 0.00 0.00 0.00 0.00
0.00 0.00 0.00 0.00 0.00 0.00 0.00 0.00 0.00 0.00 0.00 0.01 0.02 0.03 0.04 0.05 0.06 0.06 0.06 0.09 0.10 0.09 0.06 0.04 0.04 0.04 0.04 0.04 0.03 0.03 0.04 0.03 0.02 0.02 0.01 0.00 0.00 0.00 0.00 0.00 0.00 0.00 0.00
0.00 0.00 0.00 0.00 0.00 0.00 0.00 0.00 0.00 0.00 0.01 0.01 0.03 0.04 0.03 0.03 0.03 0.04 0.05 0.06 0.08 0.07 0.05 0.04 0.03 0.03 0.03 0.03 0.03 0.04 0.04 0.04 0.03 0.02 0.02 0.01 0.00 0.00 0.00 0.00 0.00 0.00 0.00
0.00 0.00 0.00 0.01 0.01 0.01 0.00 0.00 0.00 0.00 0.01 0.01 0.01 0.01 0.02 0.01 0.02 0.02 0.04 0.04 0.05 0.05 0.04 0.04 0.03 0.02 0.02 0.02 0.02 0.03 0.04 0.04 0.04 0.03 0.03 0.01 0.01 0.01 0.00 0.00 0.00 0.00 0.00
0.01 0.01 0.01 0.01 0.01 0.01 0.01 0.00 0.00 0.01 0.01 0.01 0.01 0.00 0.01 0.01 0.00 0.01 0.01 0.02 0.03 0.04 0.03 0.03 0.03 0.03 0.03 0.05 0.05 0.03 0.02 0.02 0.03 0.06 0.06 0.05 0.06 0.03 0.01 0.00 0.00 0.00 0.00
0.02 0.02 0.02 0.01 0.02 0.02 0.02 0.03 0.02 0.02 0.02 0.02 0.01 0.01 0.02 0.02 0.00 0.01 0.01 0.03 0.03 0.03 0.03 0.03 0.04 0.05 0.04 0.08 0.10 0.08 0.04 0.03 0.04 0.03 0.05 0.13 0.12 0.06 0.02 0.01 0.00 0.00 0.00
0.01 0.02 0.02 0.02 0.03 0.04 0.05 0.08 0.08 0.06 0.06 0.05 0.04 0.03 0.04 0.03 0.01 0.00 0.01 0.03 0.03 0.03 0.03 0.03 0.04 0.06 0.08 0.11 0.11 0.09 0.08 0.06 0.10 0.10 0.10 0.11 0.09 0.04 0.01 0.00 0.00 0.00 0.00
0.00 0.01 0.01 0.02 0.02 0.03 0.05 0.08 0.10 0.10 0.10 0.10 0.07 0.05 0.04 0.04 0.02 0.01 0.01 0.02 0.03 0.03 0.03 0.03 0.06 0.08 0.10 0.10 0.08 0.07 0.08 0.08 0.09 0.08 0.08 0.09 0.07 0.04 0.02 0.01 0.01 0.00 0.00
0.00 0.00 0.01 0.01 0.02 0.02 0.03 0.04 0.06 0.09 0.09 0.09 0.07 0.05 0.03 0.03 0.03 0.02 0.01 0.04 0.04 0.03 0.03 0.03 0.04 0.08 0.08 0.08 0.09 0.09 0.10 0.08 0.06 0.06 0.06 0.07 0.05 0.04 0.03 0.02 0.02 0.01 0.00
0.00 0.00 0.00 0.00 0.01 0.02 0.03 0.04 0.06 0.08 0.09 0.09 0.08 0.07 0.06 0.03 0.03 0.02 0.02 0.02 0.03 0.04 0.03 0.02 0.04 0.06 0.06 0.06 0.06 0.07 0.07 0.07 0.06 0.07 0.07 0.08 0.07 0.05 0.04 0.03 0.03 0.02 0.01
0.00 0.00 0.00 0.00 0.00 0.01 0.01 0.02 0.05 0.07 0.08 0.09 0.11 0.10 0.07 0.03 0.02 0.02 0.02 0.02 0.01 0.04 0.02 0.01 0.03 0.07 0.07 0.05 0.04 0.05 0.05 0.06 0.07 0.08 0.08 0.09 0.09 0.08 0.06 0.04 0.03 0.02 0.01
0.00 0.00 0.00 0.00 0.00 0.00 0.01 0.01 0.02 0.04 0.05 0.06 0.09 0.10 0.09 0.06 0.03 0.02 0.03 0.05 0.05 0.04 0.02 0.01 0.01 0.04 0.05 0.04 0.04 0.03 0.04 0.07 0.09 0.11 0.10 0.09 0.08 0.07 0.07 0.06 0.05 0.04 0.02
0.00 0.00 0.00 0.00 0.00 0.00 0.01 0.01 0.01 0.03 0.06 0.07 0.09 0.10 0.08 0.07 0.03 0.02 0.03 0.05 0.08 0.08 0.05 0.02 0.01 0.02 0.02 0.02 0.02 0.03 0.04 0.04 0.05 0.06 0.07 0.07 0.07 0.07 0.06 0.05 0.05 0.04 0.04
0.00 0.00 0.00 0.00 0.00 0.00 0.00 0.00 0.01 0.02 0.04 0.05 0.05 0.05 0.04 0.03 0.02 0.02 0.02 0.02 0.03 0.04 0.05 0.06 0.04 0.03 0.02 0.01 0.01 0.02 0.02 0.02 0.02 0.03 0.03 0.03 0.03 0.03 0.04 0.03 0.04 0.04 0.03
0.00 0.00 0.00 0.00 0.00 0.00 0.00 0.00 0.00 0.01 0.01 0.01 0.02 0.03 0.03 0.02 0.02 0.02 0.03 0.03 0.03 0.03 0.03 0.05 0.05 0.03 0.02 0.01 0.01 0.01 0.01 0.01 0.01 0.01 0.01 0.01 0.01 0.01 0.01 0.01 0.02 0.02 0.03
0.00 0.00 0.00 0.00 0.00 0.00 0.00 0.00 0.01 0.01 0.02 0.01 0.01 0.02 0.02 0.02 0.01 0.01 0.02 0.02 0.02 0.02 0.01 0.01 0.02 0.02 0.02 0.01 0.01 0.01 0.01 0.00 0.01 0.01 0.01 0.01 0.01 0.01 0.01 0.01 0.01 0.02 0.04
0.00 0.00 0.00 0.00 0.00 0.00 0.00 0.00 0.01 0.01 0.01 0.01 0.00 0.00 0.01 0.00 0.00 0.01 0.01 0.01 0.01 0.01 0.01 0.01 0.01 0.01 0.01 0.01 0.01 0.01 0.01 0.01 0.00 0.00 0.00 0.00 0.00 0.01 0.01 0.02 0.03 0.07 0.10
0.00 0.00 0.00 0.00 0.00 0.00 0.01 0.01 0.01 0.01 0.01 0.01 0.00 0.00 0.00 0.00 0.00 0.00 0.00 0.00 0.00 0.00 0.00 0.00 0.00 0.00 0.00 0.00 0.00 0.00 0.00 0.00 0.00 0.00 0.00 0.00 0.00 0.01 0.02 0.04 0.06 0.08 0.12
0.00 0.00 0.00 0.00 0.00 0.00 0.00 0.00 0.00 0.00 0.00 0.00 0.00 0.00 0.00 0.01 0.01 0.01 0.00 0.00 0.00 0.00 0.00 0.00 0.00 0.00 0.00 0.01 0.01 0.01 0.01 0.01 0.01 0.01 0.01 0.00 0.00 0.01 0.02 0.03 0.05 0.08 0.12
0.00 0.00 0.00 0.00 0.01 0.00 0.00 0.00 0.00 0.00 0.00 0.00 0.00 0.00 0.00 0.01 0.01 0.01 0.00 0.00 0.00 0.00 0.00 0.00 0.00 0.00 0.01 0.01 0.01 0.01 0.01 0.01 0.02 0.02 0.01 0.01 0.01 0.01 0.02 0.03 0.04 0.05 0.07
0.00 0.00 0.00 0.00 0.01 0.00 0.00 0.00 0.00 0.00 0.00 0.00 0.00 0.00 0.00 0.01 0.00 0.00 0.00 0.00 0.00 0.00 0.00 0.00 0.00 0.01 0.01 0.01 0.01 0.01 0.02 0.03 0.03 0.03 0.02 0.02 0.03 0.04 0.04 0.03 0.03 0.04 0.05
0.00 0.00 0.00 0.00 0.01 0.00 0.00 0.00 0.00 0.00 0.00 0.00 0.00 0.00 0.00 0.01 0.00 0.00 0.00 0.00 0.00 0.00 0.00 0.00 0.00 0.00 0.01 0.01 0.01 0.02 0.02 0.03 0.03 0.03 0.03 0.03 0.02 0.03 0.03 0.04 0.04 0.04 0.04
0.00 0.00 0.00 0.00 0.00 0.00 0.00 0.00 0.01 0.01 0.00 0.00 0.00 0.00 0.00 0.00 0.01 0.00 0.00 0.00 0.01 0.01 0.01 0.01 0.00 0.01 0.01 0.01 0.01 0.01 0.03 0.03 0.03 0.03 0.04 0.04 0.04 0.04 0.04 0.05 0.06 0.06 0.06
0.00 0.00 0.00 0.00 0.00 0.00 0.00 0.01 0.01 0.01 0.00 0.00 0.00 0.00 0.00 0.01 0.01 0.01 0.01 0.00 0.01 0.01 0.01 0.01 0.01 0.01 0.01 0.01 0.01 0.01 0.01 0.01 0.02 0.03 0.03 0.03 0.03 0.04 0.05 0.06 0.06 0.07 0.09
MSLP
1009.04 1009.40 1009.77 1010.09 1010.36 1010.55 1010.70 1010.81 1010.93 1011.09 1011.32 1011.62 1012.00 1012.45 1012.93 1013.42 1013.89 1014.31 1014.69 1015.02 1015.29 1015.51 1015.70 1015.85 1015.97 1016.05 1016.09 1016.10 1016.09 1016.09 1016.11 1016.18 1016.32 1016.55 1016.87 1017.26 1017.70 1018.16 1018.61 1019.01 1019.34 1019.58 1019.73
1008.70 1009.10 1009.49 1009.84 1010.13 1010.34 1010.49 1010.60 1010.70 1010.83 1011.02 1011.29 1011.65 1012.07 1012.55 1013.05 1013.54 1014.00 1014.41 1014.77 1015.06 1015.30 1015.49 1015.63 1015.72 1015.77 1015.79 1015.78 1015.77 1015.76 1015.79 1015.87 1016.02 1016.25 1016.56 1016.95 1017.38 1017.84 1018.28 1018.70 1019.05 1019.34 1019.55
1008.32 1008.75 1009.17 1009.54 1009.84 1010.06 1010.21 1010.31 1010.40 1010.51 1010.68 1010.92 1011.24 1011.65 1012.11 1012.61 1013.10 1013.58 1014.02 1014.39 1014.70 1014.94 1015.13 1015.26 1015.34 1015.38 1015.38 1015.38 1015.37 1015.38 1015.42 1015.52 1015.69 1015.93 1016.24 1016.61 1017.03 1017.46 1017.90 1018.30 1018.66 1018.97 1019.23
1007.94 1008.39 1008.82 1009.20 1009.50 1009.72 1009.87 1009.97 1010.06 1010.16 1010.31 1010.53 1010.83 1011.22 1011.66 1012.15 1012.64 1013.11 1013.54 1013.92 1014.22 1014.46 1014.63 1014.75 1014.82 1014.85 1014.86 1014.86 1014.87 1014.90 1014.98 1015.11 1015.29 1015.55 1015.86 1016.22 1016.61 1017.02 1017.43 1017.81 1018.16 1018.48 1018.76
1007.64 1008.08 1008.50 1008.87 1009.16 1009.38 1009.53 1009.63 1009.71 1009.82 1009.96 1010.18 1010.47 1010.83 1011.26 1011.72 1012.19 1012.64 1013.05 1013.40 1013.68 1013.90 1014.05 1014.14 1014.19 1014.22 1014.23 1014.24 1014.27 1014.34 1014.44 1014.60 1014.81 1015.08 1015.40 1015.75 1016.12 1016.50 1016.87 1017.23 1017.57 1017.88 1018.17
1007.45 1007.87 1008.25 1008.59 1008.86 1009.06 1009.21 1009.31 1009.41 1009.52 1009.68 1009.89 1010.18 1010.53 1010.93 1011.37 1011.80 1012.21 1012.58 1012.89 1013.13 1013.30 1013.42 1013.48 1013.51 1013.52 1013.53 1013.55 1013.60 1013.69 1013.82 1014.01 1014.25 1014.53 1014.85 1015.19 1015.55 1015.91 1016.25 1016.58 1016.90 1017.20 1017.49
1007.42 1007.78 1008.12 1008.40 1008.64 1008.82 1008.95 1009.06 1009.17 1009.30 1009.47 1009.70 1009.98 1010.32 1010.70 1011.09 1011.48 1011.84 1012.15 1012.40 1012.59 1012.71 1012.79 1012.82 1012.83 1012.82 1012.83 1012.85 1012.92 1013.02 1013.17 1013.38 1013.63 1013.93 1014.25 1014.59 1014.94 1015.28 1015.60 1015.91 1016.21 1016.49 1016.78
1007.57 1007.85 1008.11 1008.33 1008.51 1008.66 1008.78 1008.90 1009.02 1009.16 1009.35 1009.59 1009.87 1010.19 1010.54 1010.88 1011.22 1011.51 1011.76 1011.96 1012.09 1012.17 1012.21 1012.21 1012.20 1012.19 1012.19 1012.22 1012.29 1012.40 1012.57 1012.79 1013.05 1013.34 1013.66 1014.00 1014.34 1014.67 1014.98 1015.28 1015.56 1015.83 1016.11
1007.84 1008.04 1008.21 1008.36 1008.49 1008.60 1008.70 1008.81 1008.94 1009.11 1009.31 1009.55 1009.82 1010.12 1010.42 1010.72 1010.99 1011.23 1011.41 1011.55 1011.64 1011.68 1011.70 1011.69 1011.68 1011.67 1011.68 1011.72 1011.80 1011.92 1012.09 1012.31 1012.56 1012.85 1013.17 1013.50 1013.83 1014.15 1014.46 1014.75 1015.02 1015.28 1015.54
1008.20 1008.30 1008.39 1008.47 1008.54 1008.62 1008.70 1008.81 1008.94 1009.11 1009.31 1009.55 1009.81 1010.07 1010.33 1010.58 1010.79 1010.97 1011.10 1011.19 1011.25 1011.27 1011.28 1011.28 1011.29 1011.30 1011.34 1011.40 1011.49 1011.62 1011.80 1012.01 1012.25 1012.53 1012.83 1013.15 1013.47 1013.78 1014.08 1014.36 1014.62 1014.87 1015.11
1008.57 1008.59 1008.61 1008.63 1008.65 1008.70 1008.76 1008.86 1009.00 1009.17 1009.37 1009.59 1009.82 1010.05 1010.26 1010.45 1010.60 1010.72 1010.81 1010.87 1010.91 1010.94 1010.97 1011.00 1011.04 1011.10 1011.18 1011.27 1011.39 1011.53 1011.71 1011.90 1012.13 1012.39 1012.67 1012.96 1013.26 1013.56 1013.85 1014.12 1014.37 1014.60 1014.83
1008.90 1008.87 1008.83 1008.81 1008.80 1008.82 1008.87 1008.97 1009.10 1009.27 1009.46 1009.66 1009.87 1010.05 1010.22 1010.35 1010.45 1010.52 1010.57 1010.61 1010.65 1010.69 1010.75 1010.83 1010.93 1011.04 1011.17 1011.31 1011.46 1011.62 1011.79 1011.97 1012.18 1012.41 1012.65 1012.91 1013.19 1013.46 1013.73 1013.99 1014.23 1014.46 1014.66
1009.17 1009.10 1009.04 1008.99 1008.96 1008.97 1009.03 1009.12 1009.26 1009.42 1009.61 1009.79 1009.96 1010.10 1010.22 1010.30 1010.35 1010.38 1010.40 1010.42 1010.46 1010.53 1010.62 1010.75 1010.90 1011.07 1011.25 1011.44 1011.62 1011.80 1011.97 1012.14 1012.32 1012.51 1012.71 1012.94 1013.18 1013.42 1013.67 1013.92 1014.14 1014.35 1014.53
1009.36 1009.29 1009.22 1009.16 1009.14 1009.16 1009.22 1009.32 1009.47 1009.63 1009.81 1009.97 1010.12 1010.23 1010.30 1010.34 1010.34 1010.33 1010.32 1010.32 1010.36 1010.44 1010.56 1010.72 1010.92 1011.14 1011.36 1011.58 1011.79 1011.97 1012.14 1012.29 1012.44 1012.60 1012.76 1012.94 1013.14 1013.36 1013.58 1013.81 1014.02 1014.22 1014.38
1009.51 1009.45 1009.38 1009.34 1009.33 1009.37 1009.44 1009.56 1009.72 1009.89 1010.06 1010.22 1010.35 1010.44 1010.47 1010.47 1010.44 1010.39 1010.35 1010.33 1010.35 1010.42 1010.55 1010.73 1010.94 1011.18 1011.43 1011.67 1011.88 1012.07 1012.22 1012.35 1012.47 1012.58 1012.70 1012.84 1013.00 1013.19 1013.38 1013.59 1013.79 1013.98 1014.15
1009.63 1009.59 1009.55 1009.53 1009.53 1009.59 1009.68 1009.82 1009.99 1010.17 1010.36 1010.52 1010.64 1010.71 1010.73 1010.71 1010.64 1010.56 1010.48 1010.43 1010.42 1010.47 1010.58 1010.74 1010.94 1011.17 1011.41 1011.64 1011.84 1012.01 1012.15 1012.25 1012.34 1012.41 1012.49 1012.59 1012.72 1012.87 1013.05 1013.24 1013.43 1013.62 1013.79
1009.75 1009.73 1009.71 1009.71 1009.74 1009.81 1009.92 1010.07 1010.26 1010.46 1010.66 1010.83 1010.96 1011.03 1011.05 1011.01 1010.92 1010.82 1010.71 1010.62 1010.57 1010.57 1010.63 1010.75 1010.92 1011.11 1011.32 1011.51 1011.69 1011.82 1011.93 1012.00 1012.05 1012.09 1012.14 1012.21 1012.30 1012.43 1012.59 1012.77 1012.96 1013.15 1013.33
1009.87 1009.87 1009.87 1009.88 1009.92 1010.00 1010.13 1010.29 1010.49 1010.70 1010.91 1011.10 1011.25 1011.33 1011.36 1011.32 1011.24 1011.12 1010.98 1010.86 1010.77 1010.72 1010.73 1010.79 1010.89 1011.03 1011.18 1011.32 1011.45 1011.55 1011.62 1011.66 1011.68 1011.69 1011.71 1011.75 1011.82 1011.93 1012.07 1012.25 1012.44 1012.64 1012.83
1009.97 1009.99 1010.00 1010.02 1010.07 1010.15 1010.28 1010.45 1010.65 1010.87 1011.10 1011.30 1011.47 1011.58 1011.62 1011.61 1011.53 1011.41 1011.27 1011.13 1011.00 1010.91 1010.86 1010.86 1010.90 1010.97 1011.05 1011.14 1011.22 1011.27 1011.30 1011.30 1011.29 1011.28 1011.28 1011.30 1011.36 1011.45 1011.58 1011.75 1011.94 1012.14 1012.35
1010.03 1010.07 1010.09 1010.12 1010.17 1010.24 1010.36 1010.52 1010.72 1010.95 1011.18 1011.40 1011.59 1011.73 1011.81 1011.82 1011.77 1011.67 1011.54 1011.39 1011.25 1011.13 1011.04 1010.98 1010.97 1010.97 1011.00 1011.03 1011.05 1011.06 1011.05 1011.02 1010.99 1010.96 1010.93 1010.94 1010.98 1011.06 1011.18 1011.34 1011.53 1011.73 1011.94
1010.04 1010.10 1010.14 1010.17 1010.21 1010.28 1010.39 1010.53 1010.72 1010.94 1011.17 1011.41 1011.61 1011.78 1011.89 1011.94 1011.93 1011.86 1011.76 1011.63 1011.49 1011.36 1011.26 1011.17 1011.11 1011.07 1011.05 1011.03 1011.01 1010.98 1010.93 1010.88 1010.82 1010.76 1010.72 1010.71 1010.74 1010.80 1010.91 1011.06 1011.24 1011.43 1011.64
1010.01 1010.10 1010.15 1010.19 1010.23 1010.29 1010.38 1010.51 1010.68 1010.88 1011.11 1011.34 1011.55 1011.74 1011.88 1011.97 1012.01 1011.98 1011.92 1011.83 1011.72 1011.61 1011.50 1011.41 1011.33 1011.27 1011.21 1011.16 1011.10 1011.03 1010.95 1010.86 1010.78 1010.70 1010.64 1010.61 1010.61 1010.66 1010.75 1010.88 1011.04 1011.23 1011.43
1009.95 1010.07 1010.14 1010.20 1010.24 1010.29 1010.37 1010.48 1010.63 1010.81 1011.02 1011.24 1011.46 1011.66 1011.83 1011.95 1012.02 1012.05 1012.04 1011.99 1011.92 1011.84 1011.76 1011.67 1011.60 1011.52 1011.44 1011.36 1011.28 1011.17 1011.06 1010.95 1010.83 1010.72 1010.63 1010.57 1010.55 1010.58 1010.65 1010.75 1010.90 1011.07 1011.25
1009.89 1010.05 1010.15 1010.22 1010.27 1010.33 1010.40 1010.49 1010.62 1010.78 1010.97 1011.18 1011.39 1011.59 1011.77 1011.92 1012.03 1012.10 1012.14 1012.14 1012.11 1012.06 1012.01 1011.94 1011.87 1011.80 1011.71 1011.61 1011.49 1011.36 1011.21 1011.06 1010.90 1010.76 1010.63 1010.54 1010.49 1010.48 1010.52 1010.61 1010.73 1010.88 1011.05
1009.86 1010.05 1010.18 1010.28 1010.35 1010.41 1010.48 1010.57 1010.68 1010.82 1010.99 1011.18 1011.39 1011.59 1011.77 1011.94 1012.07 1012.18 1012.25 1012.28 1012.30 1012.28 1012.25 1012.21 1012.14 1012.06 1011.96 1011.84 1011.69 1011.52 1011.34 1011.14 1010.95 1010.76 1010.59 1010.46 1010.37 1010.33 1010.34 1010.39 1010.49 1010.62 1010.77
1009.86 1010.09 1010.26 1010.38 1010.47 1010.55 1010.62 1010.71 1010.81 1010.94 1011.10 1011.28 1011.48 1011.67 1011.86 1012.04 1012.19 1012.31 1012.41 1012.47 1012.51 1012.52 1012.50 1012.46 1012.40 1012.31 1012.19 1012.04 1011.86 1011.66 1011.43 1011.19 1010.94 1010.71 1010.50 1010.32 1010.19 1010.11 1010.08 1010.11 1010.18 1010.29 1010.43
Thickness
5714 5709 5705 5703 5700 5698 5695 5693 5691 5689 5687 5684 5681 5678 5674 5671 5669 5665 5663 5662 5661 5662 5664 5667 5671 5675 5678 5681 5684 5687 5689 5690 5685 5689 5688 5686 5683 5681 5677 5677 5677 5677 5676
5712 5707 5703 5700 5697 5694 5693 5691 5689 5686 5684 5682 5680 5676 5673 5669 5666 5663 5660 5659 5658 5658 5659 5662 5665 5670 5673 5678 5680 5683 5685 5688 5687 5683 5680 5679 5682 5681 5677 5673 5673 5673 5674
5710 5705 5701 5698 5694 5691 5690 5687 5685 5683 5681 5678 5676 5673 5671 5667 5663 5660 5658 5657 5655 5655 5655 5657 5661 5665 5668 5673 5676 5679 5682 5685 5685 5682 5678 5673 5676 5676 5673 5670 5670 5669 5669
5709 5703 5699 5697 5692 5689 5686 5684 5682 5680 5678 5676 5674 5671 5669 5665 5662 5660 5657 5655 5654 5654 5654 5656 5658 5662 5665 5668 5672 5676 5678 5679 5680 5679 5676 5669 5669 5669 5668 5665 5665 5664 5666
5705 5700 5697 5695 5690 5686 5682 5680 5677 5675 5674 5673 5670 5668 5666 5663 5662 5661 5658 5656 5654 5654 5654 5655 5657 5660 5663 5665 5668 5671 5673 5674 5674 5675 5674 5670 5667 5663 5665 5665 5664 5664 5664
5701 5696 5693 5689 5685 5680 5677 5675 5672 5669 5667 5667 5665 5664 5661 5660 5658 5654 5654 5654 5654 5654 5654 5655 5655 5656 5659 5660 5663 5664 5667 5668 5669 5670 5671 5671 5671 5668 5666 5664 5664 5661 5661
5695 5690 5686 5683 5678 5674 5671 5668 5665 5662 5661 5660 5660 5659 5657 5655 5651 5649 5647 5649 5651 5652 5653 5653 5654 5655 5656 5659 5661 5659 5660 5661 5664 5668 5668 5671 5672 5670 5666 5662 5662 5662 5663
5687 5683 5679 5675 5672 5669 5666 5663 5659 5659 5656 5654 5654 5653 5651 5649 5645 5643 5642 5644 5647 5650 5651 5652 5652 5653 5655 5656 5657 5658 5659 5660 5659 5660 5665 5668 5668 5667 5664 5662 5661 5660 5661
5676 5673 5671 5668 5664 5662 5659 5657 5655 5653 5650 5648 5648 5646 5644 5642 5639 5637 5636 5641 5644 5647 5649 5650 5651 5651 5653 5651 5652 5653 5654 5656 5656 5655 5657 5658 5658 5658 5658 5657 5656 5653 5652
5667 5665 5663 5660 5657 5655 5653 5651 5649 5647 5644 5642 5641 5640 5638 5637 5634 5632 5630 5637 5640 5643 5644 5645 5643 5645 5647 5646 5647 5648 5648 5650 5650 5650 5649 5649 5649 5649 5650 5652 5652 5651 5653
5660 5658 5655 5652 5650 5649 5646 5644 5642 5639 5637 5636 5634 5633 5632 5631 5628 5626 5626 5632 5635 5637 5638 5639 5641 5639 5640 5640 5641 5643 5644 5644 5645 5645 5644 5644 5643 5643 5643 5645 5649 5649 5650
5652 5650 5647 5646 5644 5642 5638 5636 5633 5631 5628 5626 5625 5624 5624 5623 5622 5621 5622 5623 5626 5630 5632 5634 5634 5632 5633 5634 5635 5635 5634 5635 5637 5637 5637 5637 5637 5637 5638 5639 5640 5641 5644
5646 5643 5641 5639 5637 5634 5631 5627 5623 5621 5618 5617 5616 5615 5615 5616 5616 5614 5616 5618 5619 5624 5627 5625 5626 5626 5626 5627 5627 5626 5627 5628 5629 5629 5630 5632 5633 5633 5633 5632 5632 5632 5634
5641 5639 5636 5634 5631 5626 5622 5618 5614 5611 5608 5606 5606 5606 5607 5607 5609 5611 5613 5614 5614 5616 5619 5618 5618 5619 5620 5621 5620 5621 5622 5622 5622 5623 5624 5625 5626 5626 5625 5623 5622 5621 5622
5638 5635 5632 5627 5623 5618 5613 5608 5607 5603 5599 5596 5596 5598 5599 5600 5600 5601 5605 5610 5613 5615 5615 5615 5616 5616 5617 5617 5617 5617 5616 5615 5615 5615 5616 5617 5618 5618 5618 5616 5615 5613 5614
5635 5631 5628 5624 5619 5615 5609 5603 5595 5594 5589 5586 5586 5589 5590 5590 5592 5595 5597 5599 5602 5605 5609 5611 5613 5614 5614 5614 5613 5611 5611 5610 5610 5610 5610 5610 5610 5611 5610 5609 5608 5608 5608
5629 5626 5623 5620 5617 5612 5609 5606 5598 5590 5585 5582 5582 5583 5584 5586 5588 5590 5592 5594 5595 5598 5604 5606 5607 5608 5609 5608 5607 5606 5606 5606 5605 5604 5604 5604 5604 5605 5605 5604 5602 5602 5603
5627 5621 5619 5617 5614 5612 5609 5605 5601 5597 5591 5585 5581 5581 5582 5583 5585 5587 5588 5591 5592 5594 5598 5600 5601 5602 5602 5602 5602 5601 5601 5601 5601 5600 5600 5600 5600 5600 5600 5599 5599 5598 5599
5624 5621 5618 5615 5613 5611 5607 5603 5600 5595 5591 5587 5584 5582 5581 5582 5583 5584 5587 5591 5591 5592 5592 5593 5594 5595 5595 5596 5597 5597 5597 5597 5597 5596 5595 5594 5594 5594 5594 5594 5594 5593 5593
5622 5615 5613 5614 5613 5610 5607 5604 5599 5595 5592 5589 5586 5584 5583 5584 5585 5584 5585 5586 5587 5588 5588 5589 5589 5590 5591 5591 5591 5591 5591 5591 5591 5590 5590 5589 5588 5588 5588 5587 5587 5587 5587
5623 5617 5610 5612 5612 5610 5607 5604 5599 5595 5593 5590 5586 5583 5581 5584 5584 5583 5583 5584 5584 5585 5585 5585 5585 5585 5585 5586 5586 5585 5584 5585 5584 5583 5583 5582 5581 5580 5580 5580 5580 5579 5579
5624 5621 5617 5614 5610 5608 5606 5604 5600 5597 5593 5589 5585 5583 5580 5583 5583 5582 5582 5582 5582 5582 5582 5581 5581 5580 5580 5580 5580 5580 5579 5578 5578 5577 5576 5575 5573 5572 5571 5571 5571 5570 5570
5626 5623 5619 5615 5612 5606 5607 5605 5602 5598 5595 5591 5588 5586 5585 5584 5583 5582 5582 5581 5580 5579 5578 5578 5577 5576 5576 5576 5575 5574 5573 5573 5572 5570 5569 5568 5566 5565 5563 5563 5563 5563 5563
5629 5626 5622 5618 5615 5612 5610 5607 5604 5600 5598 5595 5592 5590 5588 5587 5585 5584 5582 5581 5580 5578 5577 5575 5574 5574 5573 5572 5571 5570 5568 5567 5566 5565 5564 5563 5562 5561 5559 5557 5557 5557 5557
5632 5629 5625 5622 5618 5616 5613 5611 5608 5604 5601 5598 5596 5593 5591 5590 5587 5585 5583 5581 5579 5577 5575 5574 5572 5571 5570 5569 5567 5566 5564 5563 5562 5561 5561 5560 5559 5557 5555 5553 5552 5551 5550
5635 5632 5629 5625 5622 5619 5617 5615 5612 5609 5605 5602 5599 5597 5595 5592 5589 5586 5584 5581 5579 5577 5574 5572 5570 5569 5568 5566 5565 5563 5562 5562 5561 5560 5558 5557 5556 5554 5552 5549 5548 5545 5544